__ Bye Litespeed _____
██████ ██████ ███████████ █████████ █████ ████ █████ ████
░░██████ ██████ ░░███░░░░░███ ███░░░░░███░░███ ███░ ░░███ ███░
░███░█████░███ ░███ ░███ ░███ ░░░ ░███ ███ ░███ ███
░███░░███ ░███ ░██████████ ░░█████████ ░███████ ░███████
░███ ░░░ ░███ ░███░░░░░███ ░░░░░░░░███ ░███░░███ ░███░░███
░███ ░███ ░███ ░███ ███ ░███ ░███ ░░███ ░███ ░░███
█████ █████ █████ █████ ░░█████████ █████ ░░████ █████ ░░████
| Permissions | ||||||
|---|---|---|---|---|---|---|
| . | 4096 | 2026-04-17 22:22:52 | 0755 | |||
| .. | 4096 | 2026-04-17 22:23:02 | 0755 | |||
| af.js | 10065 | 2026-04-17 22:22:36 | 0644 | |||
| ar-ma.js | 9869 | 2026-04-17 22:22:49 | 0644 | |||
| ar-sa.js | 10957 | 2026-04-17 22:22:29 | 0644 | |||
| ar-tn.js | 9724 | 2026-04-17 22:22:35 | 0644 | |||
| ar.js | 12615 | 2026-04-17 22:22:49 | 0644 | |||
| az.js | 10886 | 2026-04-17 22:22:37 | 0644 | |||
| be.js | 12950 | 2026-04-17 22:22:40 | 0644 | |||
| bg.js | 10873 | 2026-04-17 22:22:34 | 0644 | |||
| bn.js | 11864 | 2026-04-17 22:22:51 | 0644 | |||
| bo.js | 12652 | 2026-04-17 22:22:48 | 0644 | |||
| br.js | 10893 | 2026-04-17 22:22:52 | 0644 | |||
| bs.js | 12154 | 2026-04-17 22:22:44 | 0644 | |||
| ca.js | 10417 | 2026-04-17 22:22:39 | 0644 | |||
| cs.js | 13909 | 2026-04-17 22:22:45 | 0644 | |||
| cv.js | 10151 | 2026-04-17 22:22:50 | 0644 | |||
| cy.js | 10364 | 2026-04-17 22:22:39 | 0644 | |||
| da.js | 9526 | 2026-04-17 22:22:42 | 0644 | |||
| de-at.js | 10477 | 2026-04-17 22:22:42 | 0644 | |||
| de.js | 10399 | 2026-04-17 22:22:43 | 0644 | |||
| dv.js | 10442 | 2026-04-17 22:22:44 | 0644 | |||
| el.js | 11649 | 2026-04-17 22:22:27 | 0644 | |||
| en-au.js | 9765 | 2026-04-17 22:22:38 | 0644 | |||
| en-ca.js | 9650 | 2026-04-17 22:22:26 | 0644 | |||
| en-gb.js | 9823 | 2026-04-17 22:22:47 | 0644 | |||
| en-ie.js | 9820 | 2026-04-17 22:22:48 | 0644 | |||
| en-nz.js | 9766 | 2026-04-17 22:22:24 | 0644 | |||
| eo.js | 10129 | 2026-04-17 22:22:52 | 0644 | |||
| es.js | 10427 | 2026-04-17 22:22:51 | 0644 | |||
| et.js | 10612 | 2026-04-17 22:22:27 | 0644 | |||
| eu.js | 9840 | 2026-04-17 22:22:31 | 0644 | |||
| fa.js | 11084 | 2026-04-17 22:22:42 | 0644 | |||
| fi.js | 11332 | 2026-04-17 22:22:30 | 0644 | |||
| fo.js | 9578 | 2026-04-17 22:22:49 | 0644 | |||
| fr-ca.js | 9544 | 2026-04-17 22:22:46 | 0644 | |||
| fr-ch.js | 9711 | 2026-04-17 22:22:36 | 0644 | |||
| fr.js | 9694 | 2026-04-17 22:22:46 | 0644 | |||
| fy.js | 10094 | 2026-04-17 22:22:43 | 0644 | |||
| gd.js | 10101 | 2026-04-17 22:22:40 | 0644 | |||
| gl.js | 10243 | 2026-04-17 22:22:25 | 0644 | |||
| he.js | 11257 | 2026-04-17 22:22:34 | 0644 | |||
| hi.js | 12033 | 2026-04-17 22:22:45 | 0644 | |||
| hr.js | 12295 | 2026-04-17 22:22:29 | 0644 | |||
| hu.js | 11506 | 2026-04-17 22:22:47 | 0644 | |||
| hy-am.js | 11151 | 2026-04-17 22:22:50 | 0644 | |||
| id.js | 10387 | 2026-04-17 22:22:37 | 0644 | |||
| is.js | 11952 | 2026-04-17 22:22:27 | 0644 | |||
| it.js | 9911 | 2026-04-17 22:22:51 | 0644 | |||
| ja.js | 9889 | 2026-04-17 22:22:33 | 0644 | |||
| jv.js | 10391 | 2026-04-17 22:22:30 | 0644 | |||
| ka.js | 11640 | 2026-04-17 22:22:33 | 0644 | |||
| kk.js | 10484 | 2026-04-17 22:22:25 | 0644 | |||
| km.js | 10188 | 2026-04-17 22:22:46 | 0644 | |||
| ko.js | 9679 | 2026-04-17 22:22:28 | 0644 | |||
| ky.js | 10495 | 2026-04-17 22:22:33 | 0644 | |||
| lb.js | 12377 | 2026-04-17 22:22:38 | 0644 | |||
| lo.js | 10488 | 2026-04-17 22:22:32 | 0644 | |||
| lt.js | 11874 | 2026-04-17 22:22:48 | 0644 | |||
| lv.js | 11404 | 2026-04-17 22:22:24 | 0644 | |||
| me.js | 11563 | 2026-04-17 22:22:37 | 0644 | |||
| mk.js | 10895 | 2026-04-17 22:22:31 | 0644 | |||
| ml.js | 11194 | 2026-04-17 22:22:48 | 0644 | |||
| mr.js | 13871 | 2026-04-17 22:22:26 | 0644 | |||
| ms-my.js | 10305 | 2026-04-17 22:22:43 | 0644 | |||
| ms.js | 10296 | 2026-04-17 22:22:29 | 0644 | |||
| my.js | 10874 | 2026-04-17 22:22:35 | 0644 | |||
| nb.js | 9690 | 2026-04-17 22:22:40 | 0644 | |||
| ne.js | 12067 | 2026-04-17 22:22:36 | 0644 | |||
| nl.js | 10092 | 2026-04-17 22:22:46 | 0644 | |||
| nn.js | 9548 | 2026-04-17 22:22:28 | 0644 | |||
| pa-in.js | 12229 | 2026-04-17 22:22:38 | 0644 | |||
| pl.js | 11415 | 2026-04-17 22:22:26 | 0644 | |||
| pt-br.js | 9693 | 2026-04-17 22:22:41 | 0644 | |||
| pt.js | 9810 | 2026-04-17 22:22:24 | 0644 | |||
| ro.js | 10070 | 2026-04-17 22:22:52 | 0644 | |||
| ru.js | 15660 | 2026-04-17 22:22:31 | 0644 | |||
| se.js | 9709 | 2026-04-17 22:22:43 | 0644 | |||
| si.js | 10579 | 2026-04-17 22:22:33 | 0644 | |||
| sk.js | 12977 | 2026-04-17 22:22:50 | 0644 | |||
| sl.js | 13613 | 2026-04-17 22:22:28 | 0644 | |||
| sq.js | 9926 | 2026-04-17 22:22:32 | 0644 | |||
| sr-cyrl.js | 12025 | 2026-04-17 22:22:34 | 0644 | |||
| sr.js | 11547 | 2026-04-17 22:22:47 | 0644 | |||
| ss.js | 10562 | 2026-04-17 22:22:50 | 0644 | |||
| sv.js | 9859 | 2026-04-17 22:22:44 | 0644 | |||
| sw.js | 9532 | 2026-04-17 22:22:53 | 0644 | |||
| ta.js | 12812 | 2026-04-17 22:22:39 | 0644 | |||
| te.js | 11349 | 2026-04-17 22:22:40 | 0644 | |||
| th.js | 10772 | 2026-04-17 22:22:30 | 0644 | |||
| tl-ph.js | 9585 | 2026-04-17 22:22:36 | 0644 | |||
| tlh.js | 11610 | 2026-04-17 22:22:32 | 0644 | |||
| tr.js | 10390 | 2026-04-17 22:22:53 | 0644 | |||
| tzl.js | 11078 | 2026-04-17 22:22:30 | 0644 | |||
| tzm-latn.js | 9586 | 2026-04-17 22:22:26 | 0644 | |||
| tzm.js | 10195 | 2026-04-17 22:22:27 | 0644 | |||
| uk.js | 13523 | 2026-04-17 22:22:45 | 0644 | |||
| uz.js | 9786 | 2026-04-17 22:22:35 | 0644 | |||
| vi.js | 10237 | 2026-04-17 22:22:24 | 0644 | |||
| x-pseudo.js | 10099 | 2026-04-17 22:22:37 | 0644 | |||
| zh-cn.js | 12238 | 2026-04-17 22:22:41 | 0644 | |||
| zh-tw.js | 10916 | 2026-04-17 22:22:41 | 0644 |